Location: Kampung Segan
(3.1399°N, 113.1002°E)
Time: 13:20:02
(UTC+00:00)

NOSS 3-3 (C) - Pass Details

Date: 05 August 2024
Orbit: 731 x 1483 km, 63.4° (Epoch: 06 September)

Event Time Altitude Azimuth Distance (km) Brightness Sun altitude
Exits shadow 20:28:53 46° 3° (N) 976 4.1 -28.6°
Drops below altitude 10° 20:32:31 10° 18° (NNE) 2,269 6.4 -27.8°
Sets 20:34:58 0° 20° (NNE) 3,244 7.3 -27.2°
